Skip Page Navigation
NASA JPL Caltech
NASA Logo - Jet Propulsion Laboratory + View the NASA Portal
+ Near-Earth Object (NEO) Program
Search JPL
JPL Home Earth Solar System Stars & Galaxies Technology
JPL Solar System Dynamics
BODIES ORBITS EPHEMERIDES TOOLS PHYSICAL DATA DISCOVERY FAQ SITE MAP
JPL Small-Body Database Browser
Search: [ help ]  
2988 Korhonen (1943 EM)
Classification: Main-belt Asteroid          SPK-ID: 2002988
Ephemeris | Orbit Diagram | Orbital Elements | Physical Parameters | Discovery Circumstances ]

[ show orbit diagram ]
Orbital Elements at Epoch 2457600.5 (2016-Jul-31.0) TDB
Reference: JPL 18 (heliocentric ecliptic J2000)
 Element Value Uncertainty (1-sigma)   Units 
e .1234198367042652 5.8344e-08  
a 2.608619955644561 1.6488e-08 au
q 2.286664506695422 1.5294e-07 au
i 14.73008411579218 5.7921e-06 deg
node 100.9103460756551 2.344e-05 deg
peri 133.6668445065085 3.243e-05 deg
M 88.30521672927286 2.0481e-05 deg
tp 2457223.016037491472
(2015-Jul-19.51603749)
8.803e-05 JED
period 1538.9150441666
4.21
1.459e-05
3.995e-08
d
yr
n .233931042109578 2.2179e-09 deg/d
Q 2.9305754045937 1.8523e-08 au
  Orbit Determination Parameters
   # obs. used (total)      1051  
   data-arc span      31018 days (84.92 yr)  
   first obs. used      1931-05-19  
   last obs. used      2016-04-20  
   planetary ephem.      DE431  
   SB-pert. ephem.      SB431-BIG16  
   condition code      0  
   fit RMS      .4961  
   data source      ORB  
   producer      Otto Matic  
   solution date      2016-Apr-25 12:41:58  

Additional Information
 Earth MOID = 1.29687 au 
 Jupiter MOID = 2.17684 au 
 T_jup = 3.354 
[ show covariance matrix ]

Ephemeris | Orbit Diagram | Orbital Elements | Physical Parameters | Discovery Circumstances ]

Physical Parameter Table
Parameter Symbol Value Units Sigma Reference Notes
absolute magnitude H 11.7 mag n/a PDS3 (MPC 17267)  
rotation period rot_per 29.494 h n/a LCDB (Rev. 2016-February); Warner et al., 2009 Published Reference List:
[Gross, J. (2003) Minor Planet Bul. 30, 44-46.]
SMASSII spectral type spec_B S   n/a EAR-A-5-DDR-TAXONOMY-V4.0 based on a high-resolution spectrum by Xu et al. (1995) or Bus and Binzel (2002)

2988 Korhonen (1943 EM)          Discovered 1943-Mar-01 by Oterma, L. at Turku
Reference: DISCOVERY.DBLast Updated: 2003-08-29

Alternate Designations
 1943 EM = 1931 KN = 1951 AS = 1953 TO3 = 1979 WM3 = 1979 YV6 
Ephemeris | Orbit Diagram | Orbital Elements | Physical Parameters | Discovery Circumstances ]
ABOUT SSD CREDITS/AWARDS PRIVACY/COPYRIGHT GLOSSARY LINKS
FirstGov 2016-May-04 09:50 UT
(server date/time)  
NASA Home Page
Site Manager:   Ryan S. Park
Webmaster  Alan B. Chamberlin